TimePDT,TemperatureF,Dew PointF,Humidity,Sea Level PressureIn,VisibilityMPH,Wind Direction,Wind SpeedMPH,Gust SpeedMPH,PrecipitationIn,Events,Conditions,WindDirDegrees,DateUTC
12:55 AM,37.0,24.1,59,30.22,8.0,Calm,Calm,-,N/A,,Clear,0,2013-05-03 07:55:00
1:55 AM,37.0,25.0,62,30.19,10.0,Calm,Calm,-,N/A,,Clear,0,2013-05-03 08:55:00
2:55 AM,32.0,24.1,73,30.20,-9999.0,Calm,Calm,-,N/A,,Unknown,0,2013-05-03 09:55:00
3:55 AM,30.9,24.1,76,30.20,10.0,South,3.5,-,N/A,,Clear,170,2013-05-03 10:55:00
4:55 AM,28.9,21.9,75,30.22,10.0,Calm,Calm,-,N/A,,Clear,0,2013-05-03 11:55:00
5:55 AM,28.9,23.0,78,30.21,10.0,Calm,Calm,-,N/A,,Clear,0,2013-05-03 12:55:00
6:55 AM,33.1,24.1,70,30.20,10.0,Calm,Calm,-,N/A,,Clear,0,2013-05-03 13:55:00
7:55 AM,42.1,28.0,58,30.20,10.0,Calm,Calm,-,N/A,,Clear,0,2013-05-03 14:55:00
8:55 AM,52.0,26.1,37,30.18,10.0,Calm,Calm,-,N/A,,Clear,0,2013-05-03 15:55:00
9:55 AM,59.0,27.0,29,30.17,10.0,Calm,Calm,-,N/A,,Clear,0,2013-05-03 16:55:00
10:55 AM,68.0,21.0,17,30.15,10.0,NNE,9.2,-,N/A,,Clear,20,2013-05-03 17:55:00
11:55 AM,71.1,19.0,14,30.11,10.0,ENE,6.9,-,N/A,,Clear,70,2013-05-03 18:55:00
12:55 PM,72.0,18.0,13,30.11,10.0,Variable,6.9,-,N/A,,Clear,0,2013-05-03 19:55:00
1:55 PM,73.9,19.9,13,30.09,10.0,NW,6.9,16.1,N/A,,Clear,320,2013-05-03 20:55:00
2:55 PM,75.0,19.0,12,30.09,10.0,North,12.7,-,N/A,,Clear,350,2013-05-03 21:55:00
3:55 PM,75.0,16.0,11,30.06,10.0,NNE,9.2,17.3,N/A,,Clear,20,2013-05-03 22:55:00
4:55 PM,75.0,18.0,12,30.05,10.0,North,15.0,21.9,N/A,,Clear,10,2013-05-03 23:55:00
5:55 PM,73.0,16.0,11,30.05,10.0,NNE,17.3,25.3,N/A,,Clear,30,2013-05-04 00:55:00
6:55 PM,70.0,16.0,13,30.03,10.0,NNE,13.8,21.9,N/A,,Clear,20,2013-05-04 01:55:00
7:55 PM,66.0,19.0,17,30.03,10.0,NNE,10.4,18.4,N/A,,Clear,30,2013-05-04 02:55:00
8:55 PM,64.0,19.9,18,30.02,10.0,North,15.0,-,N/A,,Clear,10,2013-05-04 03:55:00
9:55 PM,60.1,26.1,27,30.04,10.0,NNE,13.8,21.9,N/A,,Clear,20,2013-05-04 04:55:00
10:55 PM,54.0,24.1,31,30.03,10.0,NNE,5.8,-,N/A,,Clear,30,2013-05-04 05:55:00
11:55 PM,51.1,24.1,35,30.04,10.0,North,6.9,-,N/A,,Clear,360,2013-05-04 06:55:00